Regional Weather Roundup
Issued by NWS Charleston, WV

Home | Current Version | Previous Version | Text Only | Print | Product List | Glossary Off
Versions: 1 2 3 4 5 6 7 8 9 10 11 12 13 14 15 16 17 18 19 20 21 22 23 24 25 26 27 28 29 30 31 32 33 34 35 36 37 38 39 40 41 42 43 44 45 46 47 48 49 50

248
ASUS41 KRLX 282010
RWRRLX
West Virginia Regional Weather Roundup
National Weather Service Charleston WV
400 PM EDT THU APR 28 2016

Note: "fair" indicates few or no clouds below 12,000 feet with no
significant weather and/or obstructions to visibility.

WVZ003-282100-
Northern Panhandle of West Virginia

CITY           SKY/WX    TMP DP  RH WIND       PRES   REMARKS
WHEELING       CLOUDY    61  54  77 NW8       29.86F
$$

WVZ009-282100-
Northwest West Virginia

CITY           SKY/WX    TMP DP  RH WIND       PRES   REMARKS
PARKERSBURG      N/A     77  59  53 SW12      29.82F THUNDER
$$

WVZ006-282100-
Western West Virginia

CITY           SKY/WX    TMP DP  RH WIND       PRES   REMARKS
HUNTINGTON     PTSUNNY   78  58  49 W9        29.80F
$$

WVZ015-282100-
West Central West Virginia

CITY           SKY/WX    TMP DP  RH WIND       PRES   REMARKS
CHARLESTON       N/A     72  58  61 CALM      29.81F THUNDER
$$

WVZ022-031-282100-
North Central West Virginia

CITY           SKY/WX    TMP DP  RH WIND       PRES   REMARKS
CLARKSBURG       N/A     74  58  57 W8        29.81F
MORGANTOWN     TSTM      63  54  72 E10G25    29.84S VSB 3/4
$$

WVZ025-035-042-045-282100-
Southern West Virginia

CITY           SKY/WX    TMP DP  RH WIND       PRES   REMARKS
BECKLEY        PTSUNNY   73  53  49 W12       29.88F
LOGAN          NOT AVBL
BLUEFIELD      LGT RAIN  74  48  39 SW16G26   29.90F
LEWISBURG      TSTM      62  52  70 SW10G33   29.88R
$$

WVZ047-282100-
Northern Mountains of West Virginia

CITY           SKY/WX    TMP DP  RH WIND       PRES   REMARKS
ELKINS           N/A     75  54  47 W10       29.84F
$$

WVZ052-282100-
Eastern Panhandle of West Virginia

CITY           SKY/WX    TMP DP  RH WIND       PRES   REMARKS
MARTINSBURG    CLOUDY    50  44  80 NE9       29.96F
PETERSBURG     CLOUDY    57  54  89 N7        29.93S
$$




USA.gov is the U.S. government's official web portal to all federal, state and local government web resources and services.